Location: Cuzcurrita-R�o Tir�n
(42.5415°N, 2.9642°W)
Time: 00:55:22
(UTC+00:00)

Cosmos 1538 Rocket - Pass Details

Date: 17 January 2021
Orbit: 752 x 791 km, 74.0° (Epoch: 08 March)

Event Time Altitude Azimuth Distance (km) Brightness Sun altitude
Rises 18:55:40 0° 341° (NNW) 3,217 7.3 -19.8°
Reaches altitude 10° 18:58:03 10° 343° (NNW) 2,286 6.5 -20.2°
Maximum altitude 19:03:13 77° 69° (ENE) 776 3.8 -21.1°
Drops below altitude 10° 19:08:22 10° 156° (SSE) 2,271 6.3 -22.1°
Sets 19:10:44 0° 158° (SSE) 3,194 7.1 -22.5°
